Regional Weather Roundup
Issued by NWS

Home | Current Version | Previous Version | Text Only | Print | Product List | Glossary Off
Versions: 1 2 3 4 5 6 7 8 9 10 11 12 13 14 15 16 17 18 19 20 21 22 23 24 25 26 27

000
ASUS45 KBOU 290510
RWRCO

WEATHER ROUNDUP FOR COLORADO
NATIONAL WEATHER SERVICE DENVER/BOULDER CO
1100 PM MDT WED SEP 28 2016

NOTE: "FAIR" INDICATES FEW OR NO CLOUDS BELOW 12000 FEET WITH NO
SIGNIFICANT WEATHER AND/OR OBSTRUCTIONS TO VISIBILITY.

COZ001>005-013-030-031-290600-
...NORTHWEST COLORADO...

CITY           SKY/WX    TMP DP  RH WIND       PRES   REMARKS
CRAIG          FAIR      57  37  47 E5        30.31R
HAYDEN         FAIR      61  34  36 E8        30.34R
MEEKER         FAIR      58  39  49 NE5       30.32R
MOUNT WERNER   NOT AVBL
STEAMBOAT SPGS FAIR      59  35  39 E6        30.36S
WALDEN           N/A     54  27  35 S7        30.48S
$$

COZ006>008-011-290600-
...WEST CENTRAL VALLEYS...

CITY           SKY/WX    TMP DP  RH WIND       PRES   REMARKS
GRAND JUNCTION CLOUDY    70  39  32 CALM      30.23R
MONTROSE       FAIR      65  42  43 S3        30.31S
EAGLE          FAIR      59  30  33 E6        30.36S
RIFLE          FAIR      63  41  44 E5        30.27R
DELTA          MOCLDY    72  37  28 CALM      30.27R
NUCLA          FAIR      64  36  34 E3        30.35S
$$

COZ017>023-064>068-290600-
...SOUTHWEST COLORADO...

CITY           SKY/WX    TMP DP  RH WIND       PRES   REMARKS
DURANGO        MOCLDY    65  38  36 VRB5      30.37S
CORTEZ         CLOUDY    63  47  55 NE8       30.33S
PAGOSA SPRINGS CLOUDY    57  32  38 N3        30.47R
TELLURIDE      FAIR      55  34  46 CALM      30.55R
WOLF CREEK PAS CLOUDY    43  28  56 MISG      30.76S
$$

COZ009-010-012-014-032>034-037-058>063-290600-
...CENTRAL COLORADO...

CITY           SKY/WX    TMP DP  RH WIND       PRES   REMARKS
ASPEN          FAIR      58  31  35 S6        30.42S
BUENA VISTA    FAIR      46  27  46 SW6       30.52S
COPPER MTN     FAIR      46  23  39 S18       30.74S
BERTHOUD PASS  FAIR      36  23  60 SE25      30.77S
COTTONWOOD PAS FAIR      55  21  26 SE15G22   30.63R
GUNNISON       CLOUDY    61  28  29 NE12      30.46R
KREMMLING      FAIR      55  25  30 CALM      30.44S
LEADVILLE      FAIR      44  24  45 CALM      30.61S
MONARCH PASS   FAIR      41  27  56 E10       30.85R
SALIDA         FAIR      57  29  33 SW5       30.56R
SUNLIGHT       CLOUDY    52  28  40 SE6       30.66S
WILKERSON PASS FAIR      45  25  45 S13G18    30.75R
$$

COZ069>075-290600-
...SAN LUIS VALLEY/SANGRE DE CRISTO MOUNTAINS...

CITY           SKY/WX    TMP DP  RH WIND       PRES   REMARKS
ALAMOSA        FAIR      53  24  32 S9        30.47R
LA VETA PASS   FAIR      48  23  37 MISG      30.65R
SAGUACHE       NOT AVBL
$$

COZ035-036-038>040-290600-
...NORTHERN COLORADO FRONT RANGE...

CITY           SKY/WX    TMP DP  RH WIND       PRES   REMARKS
DENVER INTL AP FAIR      57  33  40 S13       30.37R
DMNS CITY PARK   N/A     58  40  52 SW2       30.37R
AURORA         PTCLDY    62  31  31 S9        30.38S
FRONT RANGE AP NOT AVBL
ERIE MUNI ARPT FAIR      56  37  48 N5        30.36R
BOULDER MUN AP FAIR      63  36  36 NW6       30.37S
CENTENNIAL     FAIR      59  34  39 SW10      30.39R
BROOMFIELD     NOT AVBL
FORT COLLINS   FAIR      61  37  41 CALM      30.39R
LONGMONT       FAIR      65  38  37 N7        30.38S
$$

COZ041-046-047-076>085-087-088-290600-
...PIKES PEAK/PALMER DIVIDE AND SOUTHERN FOOTHILLS...

CITY           SKY/WX    TMP DP  RH WIND       PRES   REMARKS
COLO. SPRINGS  FAIR      62  29  28 SE5       30.45R
A. F. ACADEMY  FAIR      56  31  38 W3        30.45R
SCHRIEVER AFB  NOT AVBL
ELLICOTT       NOT AVBL
FALCON         FAIR      55  29  37 S9G16     30.50R
FORT CARSON    FAIR      64  30  27 SW8       30.41R
LIMON          FAIR      55  40  56 E13       30.41R
MONUMENT HILL  FAIR      54  30  40 S9        30.48S
TRINIDAD       FAIR      53  33  46 W10       30.39R
$$

COZ042>045-048>051-090-091-290600-
...NORTHEAST COLORADO...

CITY           SKY/WX    TMP DP  RH WIND       PRES   REMARKS
GREELEY ARPT   FAIR      55  37  50 E7        30.37R
AKRON          FAIR      55  38  52 SE10      30.39R
BURLINGTON     FAIR      54  41  61 SE9       30.38R
WRAY           NOT AVBL
STERLING       FAIR      61  41  48 SE14G20   30.34R
HOLYOKE        FAIR      54  41  62 SE6       30.37R
FORT MORGAN    FAIR      55  35  47 E6        30.38R
$$

COZ086-089-092>099-290600-
...SOUTHEAST COLORADO...

CITY           SKY/WX    TMP DP  RH WIND       PRES   REMARKS
PUEBLO         FAIR      57  30  35 NE3       30.33R
LA JUNTA       FAIR      61  36  39 E9        30.33R
LAMAR          FAIR      61  41  47 E7        30.32R
SPRINGFIELD      N/A     55  42  61 SE8       30.36R
$$




USA.gov is the U.S. government's official web portal to all federal, state and local government web resources and services.